STARLINK-5065 (55641 NORAD) Tracking and Keplerian Element Data

This shows tracking and keplerian element data for the satellite.

Feedback or suggestion? Click here.




ElementValue
Catalog55641
NameSTARLINK-5065
Epoch Orbit130
Epoch Day62.91667824
Epoch Year2023
RAAN110.1977
Inclination70
Eccentricity0.0003487
Argument of Perigee268.3335
Mean Anonmoly329.0991
Mean Motion15.74992306
Decay Rate-0.00972962
L11 55641U 23021P 23062.91667824 -.00972962 00000+0 -73117-2 0 9992
L22 55641 70.0000 110.1977 0003487 268.3335 329.0991 15.74992306 1301



Live tracking and technical data element details for STARLINK-5065 (NORAD 55641). STARLINK-5065 can be tracked NOW for your location showing map with azimuth and elevation plus other details from your city location.







IsCatalogInMostPopularTable: catalog: 55641, numindb: 2
Update: records affected: 1



GetName: 55641 STARLINK-5065

Hit Count: updated at: Wed, 22 Mar 2023 15:31:24 GMT